Location: *
(45.5667°S, 177.5167°W)
Time: 15:05:42
(UTC+00:00)

Cosmos 2219 Rocket - Pass Details

Date: 29 May 2022
Orbit: 827 x 847 km, 71.0° (Epoch: 28 June)

Event Time Altitude Azimuth Distance (km) Brightness Sun altitude
Rises 06:03:51 0° 198° (SSW) 3,438 5.4 -18.0°
Reaches altitude 10° 06:07:46 10° 172° (S) 2,492 4.4 -18.7°
Enters shadow 06:09:04 12° 159° (SSE) 2,315 4.2 -18.9°
